Simultaneous Nadir Overpasses (SNOs) Predictions

Prediction of SNOs between GOES-15 and FY3D Satellite Orbit:

Table of predicted SNOs for the next 14.0 days since TLE Epoch: 8/10/2024
Index Date Time (GOES-15) GOES-15 Lat,Lon FY3D Lat,Lon Distance(km) Time Diff (sec)
1 08/10/2024 10:39:15 -0.45, 61.64 -1.02, 59.03 297.05 80
2 08/11/2024 10:23:20 -0.45, 61.68 -0.02, 63.55 213.41 80
3 08/12/2024 22:45:21 0.45, 61.77 1.25, 58.26 400.04 80
4 08/13/2024 22:24:05 0.44, 61.81 0.25, 62.77 109.16 80
5 08/16/2024 10:30:20 -0.44, 61.88 -0.45, 61.96 8.71 80
6 08/18/2024 22:33:46 0.43, 62.03 0.63, 61.18 96.43 80
7 08/19/2024 22:12:31 0.42, 62.08 -0.39, 65.69 412.29 80
8 08/21/2024 10:34:41 -0.42, 62.12 -0.80, 60.37 199.78 80
9 08/22/2024 10:18:45 -0.42, 62.16 0.22, 64.87 309.80 80
10 08/23/2024 22:40:46 0.41, 62.25 1.00, 59.59 302.94 80
